Location: Clairoix
(49.4426°N, 2.8463°E)
Time: 00:03:51
(UTC+00:00)

Daily predictions for brighter satellites

Satellite Brightness Start Highest point End
(mag) Time Altitude Azimuth Time Altitude Azimuth Time Altitude Azimuth
Cosmos 1980 Rocket 4.2 01:30:00 10° NNW 01:41:01 - ESE 01:32:42 23° N
SL-16 R/B 4.2 01:51:00 25° NNW 01:51:00 25° NNW 01:53:22 10° NNW
Resurs 1-4 Rocket 3.9 02:01:00 10° N 02:03:14 26° N 02:03:14 26° N
IDEFIX/ARIANE 42P 4.1 02:02:49 10° NNE 02:05:39 33° NNE 02:05:39 33° NNE
Cosmos 1833 Rocket 3.7 02:13:01 43° ENE 02:13:01 43° ENE 02:17:01 10° NE
CZ-2D R/B 3.7 02:16:30 10° N 02:18:59 27° N 02:18:59 27° N
CENTAUR R/B 4.0 02:27:14 23° SE 02:28:41 25° ESE 02:34:02 10° ENE
Lacrosse 4 Rocket 3.7 02:30:46 21° NNE 02:32:01 23° NE 02:35:34 10° E
Cosmos 2082 Rocket 3.2 02:38:49 38° ESE 02:39:23 39° ESE 02:44:34 10° NE
ADEOS II 3.2 02:39:21 10° N 02:42:28 34° N 02:42:28 34° N
Cosmos 1934 Rocket 4.4 02:48:44 51° NW 02:48:44 51° NW 02:53:46 10° N
Cosmos 1624 Rocket 4.3 02:50:30 67° NE 02:50:30 67° NE 02:55:11 10° NNE
CZ-2C R/B 3.8 02:45:18 10° NNE 02:49:49 34° E 02:51:08 29° SE
USA 306 4.2 03:00:25 37° NE 03:00:25 37° NE 03:03:03 10° ENE
BREEZE-M DEB (TANK) 4.4 03:04:01 19° ESE 03:04:01 19° ESE 03:05:41 10° ESE
COSMOS 2406 3.2 03:01:52 70° SSE 03:02:16 74° ESE 03:07:57 10° NNE
NOSS 3-2 (A) 4.2 03:01:33 34° SSE 03:03:04 40° ESE 03:08:52 10° NE
Cosmos 1151 Rocket 4.4 03:06:29 31° N 03:06:29 31° N 03:08:48 10° N
Cosmos 1371 Rocket 4.1 03:06:18 66° NNW 03:06:18 66° NNW 03:10:56 10° NNE
Cosmos 1605 Rocket 3.8 03:06:05 67° WNW 03:06:05 67° WNW 03:12:02 10° N
ATLAS CENTAUR R/B 2.0 03:08:06 62° NNE 03:08:06 62° NNE 03:12:15 10° NE
Cosmos 1328 Rocket 3.9 03:12:11 60° NNE 03:12:11 60° NNE 03:15:53 10° NNE
MSX 4.3 03:05:57 10° N 03:10:47 45° NW 03:10:47 45° NW
Cosmos 2322 Rocket 3.9 03:07:56 10° NNW 03:13:01 32° NE 03:18:03 10° ESE
Meteor 1-11 Rocket 3.7 03:10:46 10° NNW 03:16:45 75° W 03:18:13 52° SSW
Cosmos 1980 Rocket 3.8 03:13:43 10° NW 03:23:06 20° S 03:24:46 10° SSE
COSMOS 2455 4.5 03:15:08 10° NNW 03:20:32 32° NE 03:25:54 10° E
USA 308 3.3 03:25:30 52° N 03:25:30 52° N 03:29:10 10° ENE
Cosmos 1850 Rocket 4.1 03:19:47 10° NNW 03:25:10 76° ENE 03:30:30 10° SSE
PAYLOAD A 4.1 03:21:22 10° NNE 03:26:13 69° ESE 03:28:15 36° S
ATLAS 5 CENTAUR R/B 4.2 03:23:24 10° NNW 03:26:26 18° NNE 03:30:00 10° ENE
Cosmos 44 Rocket 3.0 03:26:24 85° W 03:26:31 86° NW 03:31:15 10° NE
SL-19 R/B 4.4 03:21:00 10° NNE 03:27:13 81° ESE 03:30:17 31° S
Cosmos 375 4.4 03:27:35 80° NNE 03:27:35 80° NNE 03:32:04 10° NE
Meteor 2-9 Rocket 4.5 03:23:43 10° N 03:29:27 68° ENE 03:34:59 10° SSE
Cosmos 1378 4.5 03:30:12 25° SE 03:31:45 37° E 03:35:08 10° NNE
CBERS-1 3.9 03:27:43 10° NNE 03:32:51 77° WNW 03:33:56 56° SW
Cosmos 2056 Rocket 3.8 03:35:21 47° WNW 03:35:21 47° WNW 03:40:16 10° NNE
Cosmos 2173 Rocket 3.9 03:33:19 17° S 03:38:13 83° E 03:44:20 10° N
Cosmos 1420 Rocket 4.1 03:38:26 50° WNW 03:38:46 51° WNW 03:43:51 10° NNE
Cosmos 1346 Rocket 4.0 03:40:21 31° NNW 03:40:21 31° NNW 03:42:45 10° N
Cosmos 1515 Rocket 3.6 03:37:57 43° S 03:39:22 82° E 03:43:52 10° NNE
GP-B 4.2 03:36:20 10° SSE 03:40:33 46° E 03:44:48 10° N
IRS-1D 4.0 03:37:55 10° N 03:42:52 41° WNW 03:43:03 41° WNW
ALOS 2.2 03:38:19 10° N 03:42:57 65° WNW 03:43:37 57° WSW
Cosmos 1461 3.1 03:42:22 52° S 03:43:07 64° SE 03:47:17 10° NE
Cosmos 2278 3.5 03:37:49 10° NNW 03:43:28 73° WSW 03:49:05 10° SSE
SL-16 R/B 2.6 03:38:19 10° NNW 03:43:59 63° ENE 03:49:36 10° SE
Cosmos 1470 Rocket 4.2 03:40:33 10° NNW 03:43:30 38° NW 03:43:30 38° NW
Resurs 1-4 Rocket 4.2 03:42:50 10° NNW 03:44:18 12° NW 03:44:18 12° NW
USA 305 3.4 03:44:58 43° NNW 03:45:31 46° N 03:49:30 10° ENE
IDEFIX/ARIANE 42P 4.2 03:43:25 10° NNW 03:46:27 19° NW 03:46:27 19° NW
FENGYUN 3A 3.8 03:44:53 10° N 03:50:07 53° WNW 03:51:35 41° WSW
NOSS 3-3 (A) 4.5 03:43:11 10° NW 03:50:38 81° SW 03:59:10 10° SE
NOSS 3-3 (C) 4.5 03:43:16 10° NW 03:50:44 81° SW 03:59:16 10° SE
METEOR-M 4.1 03:47:00 10° NNE 03:52:24 87° ESE 03:56:56 15° SSW
IRS-P3 4.2 03:49:42 10° NNE 03:55:05 79° ESE 04:00:25 10° SSW
SJ 16-02 4.5 03:53:50 10° NNE 03:55:20 11° NE 03:56:50 10° ENE
Cosmos 1833 Rocket 3.6 03:54:43 29° WNW 03:55:43 31° NW 04:00:45 10° NNE
Cosmos 1741 Rocket 3.9 03:51:40 10° NNW 03:56:52 65° WSW 04:02:00 10° S
CZ-2D R/B 4.3 03:59:42 10° NW 04:00:17 10° NW 04:00:17 10° NW
Cosmos 2228 Rocket 4.3 03:58:42 10° SSE 04:02:55 43° E 04:07:07 10° NNE
Cosmos 2219 Rocket 4.3 03:59:31 10° NNW 04:04:14 26° NE 04:08:55 10° E
Cosmos 1331 Rocket 4.2 04:00:13 12° SSW 04:04:58 72° ESE 04:10:08 10° NNE
YAOGAN 6 3.0 04:02:01 10° NNE 04:05:37 61° E 04:09:09 10° S
Cosmos 1484 Rocket 2.8 04:06:48 10° NNE 04:10:49 84° ESE 04:14:45 10° SSW
Lacrosse 4 Rocket 1.4 04:07:07 13° NW 04:11:00 64° WSW 04:15:23 10° SSE
Lacrosse 5 rocket 4.3 04:09:52 10° SSE 04:12:09 14° ESE 04:14:25 10° E
ARIANE 5 R/B 2.4 04:07:42 10° NNE 04:12:45 78° WNW 04:17:43 10° SSW
Helios 1B rocket 2.5 04:09:27 10° N 04:13:26 53° WNW 04:15:11 30° SW
Meteor 1-27 Rocket 4.1 04:10:33 25° SW 04:13:36 45° WNW 04:19:18 10° N
CZ-2C R/B 2.6 04:09:41 10° S 04:14:51 58° W 04:20:11 10° NNW
Meteor 1-29 3.6 04:13:07 10° NNE 04:16:22 53° E 04:19:36 10° S
ERS-1 4.5 04:12:06 10° NNE 04:17:19 77° WNW 04:22:31 10° SSW
CENTAUR R/B 2.5 04:14:25 23° SW 04:18:27 77° NW 04:25:48 10° NE
CZ-2C R/B 3.7 04:12:57 10° NNE 04:18:39 63° E 04:24:04 10° S
Cosmos 2100 Rocket 4.2 04:15:24 15° SW 04:20:18 49° WNW 04:26:18 10° N
Cosmos 2333 Rocket 3.5 04:15:23 10° NNW 04:20:48 42° NE 04:26:09 10° ESE
Cosmos 1110 Rocket 3.9 04:16:35 13° SSW 04:21:17 80° WNW 04:26:30 10° NNE
CZ-4C R/B 3.7 04:17:38 10° SSE 04:21:53 75° ENE 04:26:16 10° N
Cosmos 2016 Rocket 4.0 04:15:38 10° SSW 04:22:00 74° W 04:28:24 10° N
ADEOS II 4.1 04:21:46 10° NW 04:23:02 11° NW 04:23:23 11° NW
Cosmos 2082 Rocket 2.7 04:20:42 25° WSW 04:23:27 41° NW 04:28:47 10° NNE
COSMO-SKYMED 1 3.8 04:20:19 10° SE 04:24:25 44° ENE 04:28:34 10° N
SL-08 R/B 4.4 04:18:29 10° SSW 04:24:35 81° W 04:30:48 10° N
Okean 1 3.6 04:23:13 24° SW 04:25:17 44° WNW 04:29:10 10° N
Cosmos 1869 Rocket 3.5 04:23:08 10° NNW 04:27:33 66° W 04:31:53 10° S
Cosmos 1452 Rocket 3.7 04:24:11 20° SW 04:27:41 51° WNW 04:32:52 10° NNE
USA 276 3.8 04:26:13 16° SSW 04:27:55 25° SSE 04:30:28 10° E
Cosmos 2360 Rocket 2.6 04:22:21 10° NNW 04:27:59 65° ENE 04:33:34 10° SE
CZ-2C R/B 3.0 04:23:31 10° N 04:28:01 35° WNW 04:30:30 21° WSW
Meteor 1-18 Rocket 4.2 04:23:28 10° S 04:29:09 88° WNW 04:34:48 10° NNE
Envisat 3.0 04:24:03 10° NNE 04:29:10 89° W 04:34:16 10° SSW
USA 307 3.6 04:27:02 21° WNW 04:29:26 43° N 04:33:23 10° ENE
ERBS 4.2 04:28:31 13° NNW 04:29:57 18° N 04:32:03 10° NE
Cosmos 968 Rocket 3.4 04:24:47 10° NNW 04:29:59 89° WSW 04:35:07 10° SSE
Orbus 7S? 4.3 04:33:42 22° W 04:35:52 48° NNW 04:42:49 10° ENE
MINOTAUR 4 R/B 4.4 04:32:47 10° SSE 04:36:15 64° ENE 04:39:45 10° N
Cosmos 489 Rocket 4.4 04:30:16 10° NNW 04:36:27 64° WSW 04:42:33 10° S
USA 306 3.6 04:35:54 17° WNW 04:38:45 43° N 04:42:41 10° ENE
H-2A R/B 2.7 04:36:28 10° NNE 04:40:09 83° ESE 04:43:50 10° SSW
SL-24 R/B - RUBIN 2 3.6 04:38:53 17° SW 04:42:12 62° NW 04:46:33 10° NE
Cosmos 2061 Rocket 4.0 04:36:15 10° SSW 04:42:23 63° WNW 04:48:34 10° N
PSLV R/B 3.7 04:41:02 10° NNE 04:45:22 76° ESE 04:49:38 10° S
Cosmos 1733 Rocket 3.4 04:42:07 10° N 04:46:33 72° ENE 04:50:57 10° SSE
ATLAS CENTAUR R/B 3.3 04:44:03 14° WNW 04:46:51 22° NNW 04:50:37 10° NNE
COSMOS 2406 4.4 04:43:57 16° W 04:47:09 26° NW 04:51:53 10° NNE
Cosmos 2344 4.4 04:39:52 10° NW 04:48:25 77° NE 05:00:18 10° SE
CZ-2D R/B 3.9 04:45:47 10° N 04:49:29 39° WNW 04:53:15 10° SW
X-37B 2.8 04:49:24 10° SW 04:49:41 10° SSW 04:50:16 10° SSW
Meteor 2-4 Rocket 3.7 04:45:54 10° SSW 04:51:36 69° WNW 04:57:10 10° N
COSMOS 2428 4.3 04:46:47 10° NNW 04:52:05 36° NE 04:57:19 10° ESE
NOSS 3-2 (A) 3.7 04:48:58 14° WSW 04:53:44 51° NW 05:00:17 10° NE
NOSS 3-2 (C) 3.3 04:48:52 10° SW 04:54:25 77° NW 05:01:01 10° NE
Cosmos 1975 3.4 04:52:21 10° NNW 04:55:59 35° W 04:59:35 10° SSW
Cosmos 2322 Rocket 2.3 04:51:49 10° NW 04:57:23 56° WSW 05:02:52 10° S
Cosmos 1437 Rocket 4.4 04:54:46 10° N 04:58:22 37° ENE 05:01:58 10° SE
SL-08 R/B 4.0 04:54:39 10° SSW 04:58:48 31° W 05:03:03 10° NNW
Cosmos 2237 4.4 04:53:41 10° NW 04:59:12 51° WSW 05:04:40 10° S
Cosmos 1242 Rocket 2.8 04:56:40 10° NNW 04:59:54 40° W 05:03:06 10° SSW
CZ-2C R/B 2.7 04:56:30 10° N 05:00:18 78° WNW 05:04:11 10° SSW
Cosmos 2233 Rocket 4.1 04:57:06 10° SSW 05:03:21 61° WNW 05:09:36 10° N
USA 308 3.6 05:01:01 10° WNW 05:04:57 45° N 05:08:56 10° E
COSMOS 2455 2.8 05:00:57 10° NW 05:06:58 69° WSW 05:12:56 10° SSE
Cosmos 1805 3.2 05:05:14 10° NNW 05:09:05 66° W 05:12:55 10° S
USA 238 DEB 3.7 05:03:49 10° SW 05:10:16 71° NW 05:17:14 10° NE
Tsikada Rocket 4.4 05:04:35 10° NNW 05:10:22 39° W 05:16:02 10° SSW
USA 238 3.7 05:03:55 10° SW 05:10:22 72° NW 05:17:20 10° NE
ATLAS 5 CENTAUR R/B 3.4 05:07:26 10° NNW 05:12:11 40° NE 05:17:53 10° ESE
SKYMED 2 3.6 05:08:10 10° S 05:12:28 65° WSW 05:16:49 10° NNW
CZ-4B R/B 3.7 05:09:13 10° NNE 05:14:30 87° ESE 05:19:47 10° SSW
Aureole 1 Rocket 3.6 05:13:00 10° NNW 05:16:45 46° ENE 05:19:51 10° SE
GP-B 4.3 05:14:42 10° SW 05:18:04 21° W 05:21:29 10° NNW
Cosmos 1464 Rocket 4.5 05:12:41 10° S 05:18:48 69° E 05:24:55 10° NNE
ALOS 4.2 05:18:15 10° NW 05:19:26 11° NW 05:20:37 10° WNW
Cosmos 1733 3.5 05:16:27 10° NNW 05:20:01 43° W 05:23:34 10° SSW
SL-27 R/B 4.2 05:18:40 10° S 05:21:56 37° ESE 05:25:12 10° NE
Cosmos 1461 4.2 05:19:00 10° W 05:22:25 24° NNW 05:25:58 10° NNE
USA 290 2.7 05:21:33 10° NW 05:24:35 38° WSW 05:27:35 10° S
USA 305 3.4 05:21:17 10° WNW 05:25:19 51° NNE 05:29:20 10° E
Cosmos 2322 4.0 05:21:31 10° NNW 05:27:13 74° ENE 05:32:55 10° SE
Meteor 2-14 Rocket 4.5 05:21:52 10° NNW 05:27:59 84° W 05:34:05 10° S
